NORTHEAST SUFFOLK  -  Frost Advisory Frost Advisory        NORTHWEST SUFFOLK  -  Frost Advisory Frost Advisory        SOUTHEAST SUFFOLK  -  Frost Advisory Frost Advisory        SOUTHWEST SUFFOLK  -  Frost Advisory Frost Advisory      

Active alerts

Northwest Suffolk
  Details for Northwest Suffolk Frost Advisory
Southwest Suffolk
  Details for Southwest Suffolk Frost Advisory
Northeast Suffolk
  Details for Northeast Suffolk Frost Advisory
Southeast Suffolk
  Details for Southeast Suffolk Frost Advisory


WXM80 ListenWXM80 Stop

You find our weather info also at:

UK Metoffice

WeatherCloud

Weather Underground

Northeastern Weather Network

AWEKAS

Citizen Weather Observer Program (CWOP)

HAMweather, WeatherForYou, PWS Weather


Weather Underground History page Text

Daily Summary for January 25, 2017 Units:  English    Metric   Both
« Previous Day
Next Day »
Daily Weekly Monthly Yearly Custom
  High: Low: Average:
Temperature: 48.1 °F 36.8 °F 41 °F
Dew Point: 38.9 °F 31.5 °F 34.5 °F
Humidity: 91 % 60 % 78 %
Wind Speed: 10.8 mph 0.0 mph 4.5 mph
Wind Gust: 19.6 mph - -
Wind:- - West
Pressure: 29.65 in 29.39 in -
Precipitation: 0.00 in    
Historical Graphs
 
 
Tabular Data for January 25, 2017
Time Temperature Dew Point Pressure Wind Wind Speed Wind Gust Humidity Rainfall Rate (Hourly)
00:04 38.4 °F 36.0 °F 29.39 in WNW 4.4 mph 10.4 mph 91 % 0.00 in
00:09 38.4 °F 36.0 °F 29.40 in NW 2.9 mph 5.8 mph 91 % 0.00 in
00:14 38.4 °F 36.0 °F 29.40 in West 5.5 mph 9.0 mph 91 % 0.00 in
00:20 38.4 °F 36.0 °F 29.40 in West 4.1 mph 8.1 mph 91 % 0.00 in
00:25 38.3 °F 35.9 °F 29.40 in NW 5.9 mph 8.1 mph 91 % 0.00 in
00:30 38.3 °F 35.9 °F 29.41 in West 6.2 mph 6.9 mph 91 % 0.00 in
00:35 38.3 °F 35.9 °F 29.41 in West 3.6 mph 10.4 mph 91 % 0.00 in
00:40 38.3 °F 35.9 °F 29.41 in WNW 3.8 mph 9.0 mph 91 % 0.00 in
00:45 38.2 °F 35.8 °F 29.41 in WNW 4.0 mph 9.2 mph 91 % 0.00 in
00:50 38.3 °F 35.9 °F 29.41 in NNW 6.7 mph 10.4 mph 91 % 0.00 in
00:55 38.2 °F 35.5 °F 29.42 in West 4.8 mph 10.0 mph 90 % 0.00 in
01:00 38.2 °F 35.5 °F 29.42 in West 5.7 mph 12.0 mph 90 % 0.00 in
01:05 38.2 °F 35.5 °F 29.42 in WNW 6.1 mph 10.4 mph 90 % 0.00 in
01:10 38.1 °F 35.1 °F 29.42 in WNW 5.3 mph 10.4 mph 89 % 0.00 in
01:15 38.1 °F 35.1 °F 29.43 in WNW 5.8 mph 13.8 mph 89 % 0.00 in
01:20 38.0 °F 34.8 °F 29.43 in WNW 6.5 mph 11.0 mph 88 % 0.00 in
01:25 38.0 °F 34.8 °F 29.43 in WNW 3.6 mph 9.2 mph 88 % 0.00 in
01:30 37.9 °F 34.7 °F 29.43 in West 8.1 mph 11.5 mph 88 % 0.00 in
01:35 37.9 °F 34.4 °F 29.44 in WNW 7.2 mph 11.5 mph 87 % 0.00 in
01:41 37.9 °F 34.4 °F 29.43 in WNW 6.4 mph 15.0 mph 87 % 0.00 in
01:46 37.8 °F 34.0 °F 29.44 in SW 6.6 mph 11.5 mph 86 % 0.00 in
01:51 37.8 °F 34.0 °F 29.44 in WNW 7.9 mph 11.5 mph 86 % 0.00 in
01:56 37.7 °F 33.9 °F 29.45 in NW 4.5 mph 15.0 mph 86 % 0.00 in
02:01 37.7 °F 33.9 °F 29.45 in WSW 5.2 mph 11.5 mph 86 % 0.00 in
02:06 37.7 °F 33.9 °F 29.45 in NW 8.8 mph 13.8 mph 86 % 0.00 in
02:11 37.7 °F 33.9 °F 29.46 in WNW 7.4 mph 15.0 mph 86 % 0.00 in
02:16 37.6 °F 33.5 °F 29.46 in WNW 5.4 mph 13.8 mph 85 % 0.00 in
02:21 37.6 °F 33.5 °F 29.46 in WNW 9.3 mph 17.3 mph 85 % 0.00 in
02:26 37.5 °F 33.4 °F 29.47 in WNW 4.5 mph 8.1 mph 85 % 0.00 in
02:31 37.5 °F 33.4 °F 29.47 in NW 7.7 mph 13.0 mph 85 % 0.00 in
02:36 37.5 °F 33.4 °F 29.46 in NW 5.8 mph 9.2 mph 85 % 0.00 in
02:37 37.4 °F 33.3 °F 29.46 in WNW 6.1 mph 9.2 mph 85 % 0.00 in
02:42 37.4 °F 33.3 °F 29.47 in WNW 5.4 mph 11.5 mph 85 % 0.00 in
02:47 37.3 °F 33.2 °F 29.47 in NW 5.7 mph 12.7 mph 85 % 0.00 in
02:52 37.2 °F 33.1 °F 29.47 in WNW 6.6 mph 9.2 mph 85 % 0.00 in
02:53 37.2 °F 33.1 °F 29.47 in NW 7.5 mph 14.0 mph 85 % 0.00 in
02:58 37.2 °F 33.1 °F 29.46 in West 7.6 mph 16.1 mph 85 % 0.00 in
03:03 37.1 °F 32.7 °F 29.46 in WNW 10.1 mph 17.3 mph 84 % 0.00 in
03:08 37.1 °F 32.7 °F 29.47 in NW 3.3 mph 8.1 mph 84 % 0.00 in
03:13 37.1 °F 32.7 °F 29.47 in WNW 4.9 mph 12.7 mph 84 % 0.00 in
03:18 37.1 °F 32.7 °F 29.48 in West 7.5 mph 12.7 mph 84 % 0.00 in
03:23 37.1 °F 32.7 °F 29.48 in WNW 6.7 mph 11.5 mph 84 % 0.00 in
03:28 37.0 °F 32.3 °F 29.48 in WNW 4.2 mph 11.0 mph 83 % 0.00 in
03:33 37.0 °F 32.3 °F 29.48 in WNW 6.3 mph 11.5 mph 83 % 0.00 in
03:38 36.9 °F 32.2 °F 29.48 in WNW 9.8 mph 15.0 mph 83 % 0.00 in
03:43 36.9 °F 32.2 °F 29.49 in NW 7.4 mph 11.5 mph 83 % 0.00 in
03:48 36.9 °F 32.2 °F 29.49 in NW 7.9 mph 11.5 mph 83 % 0.00 in
03:53 36.9 °F 32.2 °F 29.49 in WNW 3.9 mph 9.2 mph 83 % 0.00 in
03:58 36.8 °F 32.1 °F 29.49 in West 6.5 mph 16.1 mph 83 % 0.00 in
04:04 36.8 °F 32.1 °F 29.49 in SW 8.4 mph 12.7 mph 83 % 0.00 in
04:09 36.8 °F 32.1 °F 29.49 in WNW 5.6 mph 9.2 mph 83 % 0.00 in
04:14 36.8 °F 31.8 °F 29.49 in West 6.0 mph 16.0 mph 82 % 0.00 in
04:19 36.8 °F 31.8 °F 29.50 in WNW 7.0 mph 15.0 mph 82 % 0.00 in
04:24 36.8 °F 31.8 °F 29.50 in WNW 7.0 mph 18.0 mph 82 % 0.00 in
04:29 36.8 °F 31.5 °F 29.50 in WNW 7.0 mph 16.0 mph 81 % 0.00 in
04:34 36.8 °F 31.5 °F 29.51 in WNW 9.0 mph 16.0 mph 81 % 0.00 in
04:39 36.8 °F 31.5 °F 29.51 in WNW 9.4 mph 19.6 mph 81 % 0.00 in
04:44 36.9 °F 31.6 °F 29.51 in NW 6.7 mph 15.0 mph 81 % 0.00 in
04:49 36.9 °F 31.6 °F 29.51 in WNW 6.3 mph 11.5 mph 81 % 0.00 in
04:54 37.0 °F 31.7 °F 29.51 in NNW 8.1 mph 18.4 mph 81 % 0.00 in
04:59 36.9 °F 31.6 °F 29.51 in West 6.4 mph 11.5 mph 81 % 0.00 in
05:04 37.0 °F 31.7 °F 29.51 in West 5.0 mph 12.7 mph 81 % 0.00 in
05:09 36.9 °F 31.6 °F 29.51 in WNW 7.4 mph 16.1 mph 81 % 0.00 in
05:14 36.9 °F 31.6 °F 29.52 in WNW 9.5 mph 13.0 mph 81 % 0.00 in
05:19 37.0 °F 31.7 °F 29.51 in West 4.3 mph 8.1 mph 81 % 0.00 in
05:24 36.9 °F 31.6 °F 29.52 in WNW 9.8 mph 11.5 mph 81 % 0.00 in
05:29 36.9 °F 31.6 °F 29.52 in WSW 2.4 mph 8.1 mph 81 % 0.00 in
05:34 36.9 °F 31.6 °F 29.52 in West 6.1 mph 17.3 mph 81 % 0.00 in
05:39 36.9 °F 31.6 °F 29.52 in WNW 4.0 mph 17.3 mph 81 % 0.00 in
05:44 36.9 °F 31.6 °F 29.53 in WNW 6.5 mph 12.0 mph 81 % 0.00 in
05:50 36.9 °F 31.6 °F 29.52 in West 4.8 mph 10.4 mph 81 % 0.00 in
05:55 36.9 °F 31.6 °F 29.53 in WSW 8.6 mph 16.1 mph 81 % 0.00 in
06:00 36.9 °F 31.6 °F 29.53 in NW 6.6 mph 15.0 mph 81 % 0.00 in
06:05 36.9 °F 31.6 °F 29.53 in WNW 9.6 mph 15.0 mph 81 % 0.00 in
06:10 36.9 °F 31.6 °F 29.53 in WNW 9.2 mph 16.1 mph 81 % 0.00 in
06:15 37.0 °F 31.7 °F 29.54 in West 5.5 mph 12.7 mph 81 % 0.00 in
06:20 37.0 °F 31.7 °F 29.54 in WNW 5.7 mph 8.1 mph 81 % 0.00 in
06:25 37.0 °F 31.7 °F 29.54 in WSW 10.8 mph 15.0 mph 81 % 0.00 in
06:30 37.0 °F 31.7 °F 29.54 in WNW 6.6 mph 11.5 mph 81 % 0.00 in
06:35 37.0 °F 31.7 °F 29.54 in WNW 4.3 mph 8.1 mph 81 % 0.00 in
06:40 37.0 °F 31.7 °F 29.54 in NNW 8.8 mph 13.8 mph 81 % 0.00 in
06:45 37.0 °F 31.7 °F 29.55 in NNW 6.9 mph 11.5 mph 81 % 0.00 in
06:50 37.0 °F 31.7 °F 29.55 in West 9.8 mph 17.3 mph 81 % 0.00 in
06:55 37.0 °F 31.7 °F 29.55 in WNW 8.0 mph 13.0 mph 81 % 0.00 in
07:00 37.1 °F 31.8 °F 29.55 in North 4.1 mph 15.0 mph 81 % 0.00 in
07:05 37.1 °F 31.8 °F 29.55 in NW 4.0 mph 9.2 mph 81 % 0.00 in
07:10 37.1 °F 31.8 °F 29.55 in NW 5.7 mph 9.2 mph 81 % 0.00 in
07:15 37.1 °F 31.8 °F 29.55 in NW 5.1 mph 11.5 mph 81 % 0.00 in
07:20 37.1 °F 31.8 °F 29.56 in WSW 2.7 mph 10.4 mph 81 % 0.00 in
07:26 37.2 °F 31.9 °F 29.56 in WNW 5.4 mph 13.8 mph 81 % 0.00 in
07:31 37.2 °F 31.9 °F 29.56 in WNW 4.1 mph 6.9 mph 81 % 0.00 in
07:36 37.3 °F 32.0 °F 29.56 in NW 6.9 mph 12.0 mph 81 % 0.00 in
07:41 37.4 °F 32.1 °F 29.56 in West 2.7 mph 11.5 mph 81 % 0.00 in
07:46 37.4 °F 32.1 °F 29.57 in NW 7.6 mph 15.0 mph 81 % 0.00 in
07:51 37.5 °F 31.9 °F 29.57 in WNW 3.6 mph 13.8 mph 80 % 0.00 in
07:56 37.7 °F 32.4 °F 29.57 in WNW 9.5 mph 12.7 mph 81 % 0.00 in
08:01 37.8 °F 32.5 °F 29.58 in West 7.4 mph 11.5 mph 81 % 0.00 in
08:06 38.0 °F 32.7 °F 29.58 in WNW 5.2 mph 11.5 mph 81 % 0.00 in
08:11 38.1 °F 32.8 °F 29.58 in NW 5.7 mph 11.5 mph 81 % 0.00 in
08:16 38.4 °F 32.8 °F 29.58 in NW 5.1 mph 8.1 mph 80 % 0.00 in
08:21 38.6 °F 33.0 °F 29.59 in WNW 6.0 mph 11.5 mph 80 % 0.00 in
08:26 38.8 °F 32.8 °F 29.59 in West 5.8 mph 11.5 mph 79 % 0.00 in
08:32 39.0 °F 33.0 °F 29.59 in West 5.3 mph 11.5 mph 79 % 0.00 in
08:37 39.2 °F 33.2 °F 29.60 in WNW 9.1 mph 9.2 mph 79 % 0.00 in
08:42 39.3 °F 33.3 °F 29.60 in WNW 6.0 mph 10.4 mph 79 % 0.00 in
08:47 39.3 °F 33.0 °F 29.60 in West 4.8 mph 12.0 mph 78 % 0.00 in
08:52 39.3 °F 33.3 °F 29.60 in West 8.3 mph 13.8 mph 79 % 0.00 in
08:57 39.4 °F 33.4 °F 29.60 in South 4.2 mph 9.2 mph 79 % 0.00 in
09:02 39.5 °F 33.5 °F 29.60 in SW 3.1 mph 9.2 mph 79 % 0.00 in
09:07 39.5 °F 33.5 °F 29.61 in West 3.9 mph 9.0 mph 79 % 0.00 in
09:12 39.6 °F 33.6 °F 29.60 in West 4.1 mph 11.5 mph 79 % 0.00 in
09:17 39.6 °F 33.6 °F 29.61 in WSW 4.5 mph 8.0 mph 79 % 0.00 in
09:22 39.7 °F 33.7 °F 29.61 in West 6.1 mph 8.1 mph 79 % 0.00 in
09:27 39.7 °F 33.7 °F 29.60 in West 5.0 mph 10.4 mph 79 % 0.00 in
09:32 39.8 °F 33.5 °F 29.61 in West 7.6 mph 10.4 mph 78 % 0.00 in
09:37 39.8 °F 33.5 °F 29.61 in WSW 5.5 mph 11.5 mph 78 % 0.00 in
09:42 40.0 °F 34.0 °F 29.61 in NW 6.9 mph 12.7 mph 79 % 0.00 in
09:47 40.1 °F 34.1 °F 29.61 in WNW 2.9 mph 6.0 mph 79 % 0.00 in
09:52 40.2 °F 34.2 °F 29.61 in West 6.9 mph 9.2 mph 79 % 0.00 in
09:57 40.4 °F 34.1 °F 29.62 in West 4.5 mph 10.4 mph 78 % 0.00 in
10:02 40.5 °F 34.2 °F 29.62 in SSW 5.1 mph 8.1 mph 78 % 0.00 in
10:07 40.6 °F 34.0 °F 29.62 in West 5.3 mph 11.5 mph 77 % 0.00 in
10:13 40.7 °F 34.0 °F 29.62 in WSW 9.1 mph 12.0 mph 77 % 0.00 in
10:18 40.8 °F 34.1 °F 29.62 in WSW 6.4 mph 10.4 mph 77 % 0.00 in
10:23 40.9 °F 34.2 °F 29.62 in West 4.0 mph 6.9 mph 77 % 0.00 in
10:28 41.0 °F 34.3 °F 29.62 in WNW 2.6 mph 8.1 mph 77 % 0.00 in
10:33 41.2 °F 34.5 °F 29.63 in West 1.4 mph 6.9 mph 77 % 0.00 in
10:38 41.4 °F 34.4 °F 29.63 in WNW 3.7 mph 11.5 mph 76 % 0.00 in
10:43 41.5 °F 34.5 °F 29.62 in WNW 4.4 mph 8.1 mph 76 % 0.00 in
10:48 41.8 °F 34.5 °F 29.62 in WSW 4.0 mph 9.2 mph 75 % 0.00 in
10:53 42.2 °F 34.8 °F 29.62 in West 4.6 mph 7.0 mph 75 % 0.00 in
10:58 42.4 °F 34.7 °F 29.61 in West 3.6 mph 10.4 mph 74 % 0.00 in
11:00 42.5 °F 34.8 °F 29.61 in West 8.8 mph 13.8 mph 74 % 0.00 in
11:05 43.0 °F 34.9 °F 29.62 in WNW 9.4 mph 12.7 mph 73 % 0.00 in
11:10 43.5 °F 35.4 °F 29.62 in WSW 8.3 mph 14.0 mph 73 % 0.00 in
11:15 43.9 °F 35.1 °F 29.62 in West 9.5 mph 17.0 mph 71 % 0.00 in
11:20 44.2 °F 35.0 °F 29.62 in West 7.1 mph 12.0 mph 70 % 0.00 in
11:25 44.5 °F 35.3 °F 29.62 in WSW 7.1 mph 15.0 mph 70 % 0.00 in
11:30 44.6 °F 35.1 °F 29.62 in WNW 9.2 mph 17.0 mph 69 % 0.00 in
11:35 44.7 °F 35.1 °F 29.61 in WSW 8.2 mph 11.5 mph 69 % 0.00 in
11:40 44.8 °F 34.9 °F 29.60 in West 9.6 mph 15.0 mph 68 % 0.00 in
11:45 44.8 °F 34.9 °F 29.60 in WSW 8.4 mph 17.3 mph 68 % 0.00 in
11:51 44.7 °F 34.8 °F 29.60 in WNW 9.6 mph 17.3 mph 68 % 0.00 in
11:56 44.7 °F 34.8 °F 29.60 in WNW 6.3 mph 11.5 mph 68 % 0.00 in
12:01 44.9 °F 35.0 °F 29.59 in West 4.6 mph 10.4 mph 68 % 0.00 in
12:06 45.0 °F 35.1 °F 29.60 in West 3.8 mph 11.5 mph 68 % 0.00 in
12:11 45.2 °F 35.3 °F 29.59 in West 7.3 mph 13.8 mph 68 % 0.00 in
12:16 45.5 °F 35.2 °F 29.59 in West 5.7 mph 10.4 mph 67 % 0.00 in
12:21 45.8 °F 34.7 °F 29.60 in NW 3.6 mph 9.2 mph 65 % 0.00 in
12:26 45.9 °F 34.8 °F 29.61 in WNW 3.7 mph 10.4 mph 65 % 0.00 in
12:31 45.9 °F 34.8 °F 29.61 in West 7.1 mph 11.5 mph 65 % 0.00 in
12:36 45.8 °F 34.7 °F 29.60 in SW 7.6 mph 12.0 mph 65 % 0.00 in
12:41 45.9 °F 34.8 °F 29.59 in WNW 5.6 mph 16.1 mph 65 % 0.00 in
12:46 46.3 °F 35.9 °F 29.59 in West 1.5 mph 4.0 mph 67 % 0.00 in
12:51 46.6 °F 35.5 °F 29.58 in West 2.6 mph 6.9 mph 65 % 0.00 in
12:56 46.9 °F 35.4 °F 29.59 in SSW 7.3 mph 11.0 mph 64 % 0.00 in
13:01 47.2 °F 35.2 °F 29.59 in WNW 5.0 mph 10.4 mph 63 % 0.00 in
13:06 47.4 °F 35.4 °F 29.59 in NW 2.3 mph 4.6 mph 63 % 0.00 in
13:11 47.6 °F 35.6 °F 29.59 in WNW 3.5 mph 6.9 mph 63 % 0.00 in
13:17 47.9 °F 35.5 °F 29.59 in SW 7.9 mph 12.7 mph 62 % 0.00 in
13:22 47.9 °F 35.5 °F 29.59 in WSW 5.1 mph 6.9 mph 62 % 0.00 in
13:27 48.0 °F 35.6 °F 29.59 in WSW 5.9 mph 10.4 mph 62 % 0.00 in
13:32 48.1 °F 35.3 °F 29.59 in WNW 6.6 mph 15.0 mph 61 % 0.00 in
13:37 48.1 °F 34.9 °F 29.60 in NW 4.6 mph 13.8 mph 60 % 0.00 in
13:42 48.1 °F 34.9 °F 29.60 in West 8.2 mph 16.1 mph 60 % 0.00 in
13:47 47.9 °F 34.7 °F 29.60 in NW 6.4 mph 12.7 mph 60 % 0.00 in
13:52 47.9 °F 35.1 °F 29.60 in West 6.5 mph 13.8 mph 61 % 0.00 in
13:57 47.8 °F 35.4 °F 29.60 in West 5.6 mph 15.0 mph 62 % 0.00 in
14:02 47.8 °F 35.8 °F 29.60 in WNW 4.6 mph 9.2 mph 63 % 0.00 in
14:07 47.9 °F 35.5 °F 29.60 in WSW 7.4 mph 12.0 mph 62 % 0.00 in
14:12 47.9 °F 35.9 °F 29.61 in WSW 5.5 mph 10.4 mph 63 % 0.00 in
14:17 47.8 °F 35.8 °F 29.60 in West 4.2 mph 17.3 mph 63 % 0.00 in
14:22 47.8 °F 35.8 °F 29.61 in WSW 8.9 mph 12.7 mph 63 % 0.00 in
14:27 47.7 °F 35.3 °F 29.62 in West 9.4 mph 13.8 mph 62 % 0.00 in
14:32 47.6 °F 35.6 °F 29.61 in WSW 7.3 mph 11.5 mph 63 % 0.00 in
14:37 47.4 °F 35.4 °F 29.61 in West 5.3 mph 8.1 mph 63 % 0.00 in
14:43 47.2 °F 35.6 °F 29.62 in WNW 8.2 mph 13.8 mph 64 % 0.00 in
14:48 47.0 °F 35.4 °F 29.62 in SW 8.4 mph 11.5 mph 64 % 0.00 in
14:53 46.9 °F 35.4 °F 29.62 in NNW 5.1 mph 11.5 mph 64 % 0.00 in
14:58 46.8 °F 35.6 °F 29.63 in SW 5.0 mph 12.7 mph 65 % 0.00 in
15:03 46.8 °F 35.6 °F 29.63 in WNW 5.6 mph 12.7 mph 65 % 0.00 in
15:08 46.7 °F 35.6 °F 29.62 in SW 5.1 mph 11.5 mph 65 % 0.00 in
15:13 46.6 °F 35.5 °F 29.62 in WSW 9.4 mph 16.0 mph 65 % 0.00 in
15:18 46.5 °F 35.4 °F 29.62 in WNW 7.0 mph 15.0 mph 65 % 0.00 in
15:23 46.4 °F 35.7 °F 29.62 in WNW 6.5 mph 16.1 mph 66 % 0.00 in
15:28 46.3 °F 35.6 °F 29.62 in SW 7.3 mph 10.4 mph 66 % 0.00 in
15:33 46.2 °F 35.5 °F 29.63 in WSW 6.1 mph 11.5 mph 66 % 0.00 in
15:38 46.1 °F 35.7 °F 29.63 in West 7.5 mph 11.5 mph 67 % 0.00 in
15:43 46.0 °F 35.7 °F 29.63 in WNW 6.6 mph 12.7 mph 67 % 0.00 in
15:48 45.9 °F 35.6 °F 29.63 in West 4.5 mph 10.4 mph 67 % 0.00 in
15:53 45.8 °F 35.8 °F 29.63 in West 3.4 mph 9.2 mph 68 % 0.00 in
15:58 45.6 °F 36.0 °F 29.63 in SW 3.6 mph 10.4 mph 69 % 0.00 in
16:03 45.4 °F 35.8 °F 29.63 in WSW 5.4 mph 11.5 mph 69 % 0.00 in
16:08 45.2 °F 35.6 °F 29.63 in NW 5.2 mph 11.0 mph 69 % 0.00 in
16:13 45.0 °F 35.8 °F 29.63 in WNW 4.0 mph 8.1 mph 70 % 0.00 in
16:18 44.9 °F 35.7 °F 29.63 in WNW 3.9 mph 9.2 mph 70 % 0.00 in
16:24 44.7 °F 35.5 °F 29.62 in WNW 4.6 mph 6.0 mph 70 % 0.00 in
16:29 44.6 °F 35.4 °F 29.62 in WSW 5.8 mph 9.2 mph 70 % 0.00 in
16:34 44.4 °F 35.6 °F 29.62 in West 3.0 mph 15.0 mph 71 % 0.00 in
16:39 44.2 °F 35.4 °F 29.62 in WNW 5.0 mph 10.0 mph 71 % 0.00 in
16:44 44.1 °F 35.3 °F 29.63 in West 3.0 mph 15.0 mph 71 % 0.00 in
16:49 43.9 °F 35.1 °F 29.63 in West 6.0 mph 12.0 mph 71 % 0.00 in
16:54 43.8 °F 35.4 °F 29.63 in NNW 2.4 mph 10.4 mph 72 % 0.00 in
16:59 43.7 °F 35.3 °F 29.64 in WNW 3.0 mph 7.0 mph 72 % 0.00 in
17:04 43.5 °F 35.1 °F 29.64 in West 2.9 mph 6.0 mph 72 % 0.00 in
17:09 43.4 °F 35.0 °F 29.64 in West 3.8 mph 6.9 mph 72 % 0.00 in
17:14 43.4 °F 35.3 °F 29.65 in Calm   1.2 mph 73 % 0.00 in
17:19 43.3 °F 35.2 °F 29.65 in WSW 0.3 mph 3.5 mph 73 % 0.00 in
17:24 43.2 °F 35.1 °F 29.64 in Calm   1.2 mph 73 % 0.00 in
17:29 43.1 °F 35.0 °F 29.64 in NW 2.6 mph 3.5 mph 73 % 0.00 in
17:34 43.0 °F 34.9 °F 29.64 in NW 1.4 mph 3.5 mph 73 % 0.00 in
17:39 42.8 °F 35.1 °F 29.64 in WNW 1.7 mph 3.5 mph 74 % 0.00 in
17:44 42.7 °F 35.0 °F 29.64 in WNW 0.3 mph 1.2 mph 74 % 0.00 in
17:49 42.6 °F 35.2 °F 29.64 in WNW 0.4 mph 3.5 mph 75 % 0.00 in
17:54 42.5 °F 35.1 °F 29.65 in West 0.8 mph 1.2 mph 75 % 0.00 in
17:59 42.4 °F 35.0 °F 29.65 in West 0.5 mph 2.3 mph 75 % 0.00 in
18:04 42.3 °F 35.3 °F 29.65 in West 0.6 mph 3.5 mph 76 % 0.00 in
18:10 42.1 °F 35.1 °F 29.65 in West 0.9 mph 1.2 mph 76 % 0.00 in
18:15 42.0 °F 35.0 °F 29.64 in Calm     76 % 0.00 in
18:20 41.9 °F 34.9 °F 29.64 in Calm   1.2 mph 76 % 0.00 in
18:25 41.7 °F 35.0 °F 29.64 in West 0.1 mph 1.2 mph 77 % 0.00 in
18:30 41.6 °F 34.9 °F 29.64 in Calm     77 % 0.00 in
18:35 41.4 °F 35.1 °F 29.64 in West 0.4 mph 2.3 mph 78 % 0.00 in
18:40 41.3 °F 35.0 °F 29.63 in Calm     78 % 0.00 in
18:45 41.2 °F 35.2 °F 29.64 in Calm     79 % 0.00 in
18:50 41.1 °F 35.1 °F 29.64 in Calm     79 % 0.00 in
18:55 41.0 °F 35.3 °F 29.64 in Calm     80 % 0.00 in
19:00 40.8 °F 35.1 °F 29.64 in Calm     80 % 0.00 in
19:05 40.6 °F 34.9 °F 29.63 in Calm     80 % 0.00 in
19:10 40.5 °F 35.1 °F 29.62 in Calm     81 % 0.00 in
19:12 40.4 °F 35.0 °F 29.62 in Calm     81 % 0.00 in
19:17 40.2 °F 34.8 °F 29.62 in Calm     81 % 0.00 in
19:22 40.2 °F 35.1 °F 29.62 in Calm     82 % 0.00 in
19:27 40.0 °F 34.9 °F 29.62 in Calm     82 % 0.00 in
19:33 39.8 °F 35.1 °F 29.62 in West 0.6 mph 1.0 mph 83 % 0.00 in
19:38 39.7 °F 35.0 °F 29.62 in West 0.6 mph 2.3 mph 83 % 0.00 in
19:43 39.6 °F 35.2 °F 29.62 in West 0.3 mph 1.2 mph 84 % 0.00 in
19:48 39.5 °F 35.1 °F 29.62 in Calm   1.2 mph 84 % 0.00 in
19:53 39.5 °F 35.1 °F 29.62 in Calm     84 % 0.00 in
19:58 39.3 °F 34.9 °F 29.62 in Calm     84 % 0.00 in
20:03 39.3 °F 34.9 °F 29.62 in Calm     84 % 0.00 in
20:08 39.3 °F 34.9 °F 29.62 in Calm     84 % 0.00 in
20:13 39.2 °F 34.8 °F 29.62 in West 0.2 mph 2.3 mph 84 % 0.00 in
20:18 39.2 °F 35.1 °F 29.61 in West 1.0 mph 2.3 mph 85 % 0.00 in
20:23 39.2 °F 35.1 °F 29.61 in Calm   1.0 mph 85 % 0.00 in
20:28 39.2 °F 35.1 °F 29.61 in West 1.4 mph 2.3 mph 85 % 0.00 in
20:33 39.2 °F 35.1 °F 29.61 in West 0.1 mph 1.2 mph 85 % 0.00 in
20:38 39.3 °F 35.2 °F 29.61 in West 0.6 mph 1.0 mph 85 % 0.00 in
20:43 39.3 °F 35.2 °F 29.61 in West 0.3 mph 2.3 mph 85 % 0.00 in
20:48 39.4 °F 35.0 °F 29.61 in West 0.1 mph 1.0 mph 84 % 0.00 in
20:54 39.6 °F 35.2 °F 29.61 in Calm   1.2 mph 84 % 0.00 in
20:59 39.7 °F 35.3 °F 29.61 in Calm     84 % 0.00 in
21:04 39.7 °F 35.3 °F 29.61 in Calm     84 % 0.00 in
21:09 39.8 °F 35.4 °F 29.60 in Calm   1.0 mph 84 % 0.00 in
21:14 40.0 °F 35.6 °F 29.60 in Calm   1.2 mph 84 % 0.00 in
21:19 40.0 °F 35.6 °F 29.60 in Calm   1.0 mph 84 % 0.00 in
21:24 40.1 °F 35.4 °F 29.60 in Calm     83 % 0.00 in
21:29 40.2 °F 35.4 °F 29.60 in Calm     83 % 0.00 in
21:34 40.3 °F 35.5 °F 29.60 in Calm   1.0 mph 83 % 0.00 in
21:39 40.4 °F 35.6 °F 29.60 in Calm   4.0 mph 83 % 0.00 in
21:44 40.4 °F 35.6 °F 29.60 in Calm   3.0 mph 83 % 0.00 in
21:49 40.5 °F 35.7 °F 29.60 in SSW 2.2 mph 3.5 mph 83 % 0.00 in
21:54 40.6 °F 35.5 °F 29.59 in South 3.0 mph 6.0 mph 82 % 0.00 in
21:59 40.9 °F 35.8 °F 29.59 in South 4.2 mph 7.0 mph 82 % 0.00 in
22:04 41.1 °F 36.0 °F 29.59 in South 2.0 mph 4.0 mph 82 % 0.00 in
22:09 41.2 °F 36.1 °F 29.60 in South 2.2 mph 4.0 mph 82 % 0.00 in
22:14 41.4 °F 36.3 °F 29.59 in SSW 1.6 mph 3.5 mph 82 % 0.00 in
22:19 41.5 °F 36.4 °F 29.59 in SW 2.1 mph 3.5 mph 82 % 0.00 in
22:24 41.7 °F 36.9 °F 29.58 in SSW 2.5 mph 4.6 mph 83 % 0.00 in
22:29 41.9 °F 37.1 °F 29.58 in SSW 2.4 mph 3.5 mph 83 % 0.00 in
22:34 42.1 °F 37.3 °F 29.57 in SSW 1.4 mph 3.5 mph 83 % 0.00 in
22:39 42.3 °F 37.5 °F 29.57 in SW 2.9 mph 4.6 mph 83 % 0.00 in
22:44 42.6 °F 37.8 °F 29.57 in SSW 1.2 mph 2.3 mph 83 % 0.00 in
22:49 42.8 °F 38.0 °F 29.56 in SW 2.5 mph 3.5 mph 83 % 0.00 in
22:54 43.0 °F 38.2 °F 29.56 in SW 0.4 mph 3.5 mph 83 % 0.00 in
22:59 43.2 °F 38.1 °F 29.56 in SW 0.3 mph 3.5 mph 82 % 0.00 in
23:04 43.3 °F 38.2 °F 29.55 in SW 0.3 mph 2.3 mph 82 % 0.00 in
23:10 43.5 °F 38.4 °F 29.55 in SW 1.0 mph 3.5 mph 82 % 0.00 in
23:15 43.6 °F 38.5 °F 29.55 in SW 2.4 mph 4.0 mph 82 % 0.00 in
23:20 43.8 °F 38.3 °F 29.55 in SW 3.3 mph 6.0 mph 81 % 0.00 in
23:25 44.1 °F 38.6 °F 29.55 in SSW 2.8 mph 3.5 mph 81 % 0.00 in
23:30 44.3 °F 38.8 °F 29.55 in SSW 2.4 mph 4.6 mph 81 % 0.00 in
23:35 44.5 °F 38.7 °F 29.55 in SW 2.4 mph 4.6 mph 80 % 0.00 in
23:36 44.5 °F 38.7 °F 29.54 in SSW 2.1 mph 4.6 mph 80 % 0.00 in
23:41 44.7 °F 38.9 °F 29.54 in SW 2.7 mph 5.8 mph 80 % 0.00 in
23:46 44.9 °F 38.8 °F 29.54 in SSE 0.9 mph 2.3 mph 79 % 0.00 in
23:51 45.0 °F 38.6 °F 29.53 in SSW 3.5 mph 8.1 mph 78 % 0.00 in
23:56 45.2 °F 38.7 °F 29.53 in SSW 4.5 mph 6.9 mph 78 % 0.00 in
Crab Meadow Weather
Compliments of Weather Underground - 3 mb

Script developed by  Jim McMurry - jmcmurry@mwt.net Adapted for the template by  Wim van der Kuil - Leuven-Template.eu

Weather Terms: Dew Point - A measure of atmospheric moisture. It is the temperature to which air must be cooled in order to reach saturation (assuming pressure and moisture content are constant).